Dewpoint
-3 -6 -5 -8 -8 -8 -9 -9 -8 -4 -5 -4 -4 -4 -4 -4 -6 -7 -6 -4 -3 -4 -3 -3 -4 -5 -5 -5 -6 -5 -5 -6 -6 -6 -6 -5 -4 -3 -2 1 2 2 0 -2
-5 -4 -6 -7 -7 -7 -8 -7 -3 -3 -5 -5 -5 -4 -5 -5 -6 -6 -5 -3 -4 -3 -3 -4 -4 -4 -3 -2 -4 -5 -7 -8 -8 -8 -7 -6 -6 -5 -4 -3 -0 -3 -5 -4
-5 -5 -7 -7 -6 -5 -5 -4 -4 -3 -4 -4 -4 -5 -3 -3 -4 -5 -5 -4 -3 -3 -3 0 1 1 1 -2 -5 -6 -7 -7 -7 -6 -5 -5 -5 -5 -4 -5 -5 -7 -5 -5
-5 -7 -7 -7 -5 -4 -3 -5 -3 -2 -6 -9 -5 -9 -4 -2 -2 -2 -2 -2 -1 -1 0 1 2 1 -2 -4 -6 -6 -6 -6 -6 -6 -6 -7 -7 -8 -8 -9 -9 -9 -9 -10
-4 -5 -4 -5 -5 -5 -2 -4 -3 -2 -2 -2 -3 -2 -3 -2 -1 -2 -1 -1 -1 -0 -2 -2 -2 -2 -7 -7 -6 -6 -6 -5 -6 -6 -7 -7 -8 -10 -10 -10 -12 -12 -12 -12
-4 -6 -6 -6 -5 -4 -4 -2 -0 -0 0 1 -4 -3 -2 -0 -2 -3 -3 -2 -4 -5 -5 -4 -4 -6 -7 -6 -5 -5 -5 -6 -6 -7 -7 -8 -10 -11 -12 -12 -11 -12 -11 -10
-3 -4 -5 -5 -3 -3 -3 -0 2 2 3 1 -1 -1 -1 -4 -7 -5 -3 -3 -5 -6 -5 -5 -6 -5 -4 -4 -5 -5 -5 -5 -6 -6 -7 -9 -10 -11 -11 -12 -12 -12 -11 -11
-1 -0 -3 -6 -4 -2 -1 -1 0 -3 4 4 -3 -0 -3 -6 -4 -4 -4 -5 -5 -5 -5 -5 -4 -3 -4 -5 -5 -5 -5 -5 -6 -6 -7 -8 -10 -11 -11 -12 -13 -13 -12 -12
1 -1 -6 -6 -5 -4 -2 -0 -2 0 -0 1 -2 -5 -6 -5 -4 -4 -4 -4 -5 -4 -2 -2 -2 -4 -5 -4 -4 -4 -4 -4 -4 -4 -6 -8 -9 -10 -12 -12 -9 -8 -9 -11
-4 -0 -4 -4 -4 -3 -3 -4 -0 0 0 3 1 -1 -3 -4 -3 -3 -3 -4 -3 -2 -2 -3 -4 -3 -3 -3 -3 -4 -4 -4 -6 -6 -7 -7 -7 -7 -7 -7 -6 -6 -6 -7
-5 -3 -1 -4 -2 -2 -1 -1 -1 -1 -1 2 1 -1 -3 -4 -5 -3 -3 -3 -2 -3 -4 -3 -3 -3 -4 -4 -4 -3 -3 -4 -5 -6 -6 -5 -5 -5 -4 -4 -5 -8 -8 -7
-5 -2 0 -2 -3 -4 -4 -2 -1 0 -2 0 0 0 -6 -5 -6 -5 -3 -3 -3 -3 -3 -4 -4 -5 -5 -4 -3 -4 -4 -5 -5 -5 -5 -4 -4 -5 -5 -5 -5 -5 -6 -6
-4 -1 -0 -0 -1 -2 -2 -2 -1 -2 -1 1 0 -0 -6 -3 -3 -3 -3 -3 -3 -3 -3 -3 -4 -4 -5 -5 -5 -5 -6 -8 -13 -17 -18 -17 -13 -12 -12 -11 -9 -7 -5 -5
-4 -1 -3 -2 -2 -1 -1 -1 -0 -1 -0 0 0 -2 -3 -2 -2 -3 -3 -4 -4 -4 -5 -3 -4 -4 -5 -4 -5 -5 -6 -8 -10 -15 -22 -18 -14 -14 -14 -10 -6 -5 -5 -5
-3 -2 0 -0 -1 -2 -2 -2 -1 -1 -1 -0 -3 -1 -4 -3 -3 -5 -6 -6 -8 -9 -9 -8 -8 -8 -8 -10 -10 -11 -15 -23 -22 -19 -15 -18 -20 -20 -16 -12 -8 -7 -6 -6
-2 -1 -4 -3 -2 -1 0 -1 -1 -1 -1 -1 -1 -2 -4 -4 -5 -5 -7 -9 -10 -11 -11 -11 -13 -16 -18 -21 -21 -20 -19 -20 -21 -20 -20 -20 -21 -23 -24 -24 -16 -8 -7 -6
-1 -1 -1 -0 -2 -3 -3 -2 -2 -2 -2 -2 0 -2 -4 -5 -6 -8 -10 -11 -13 -13 -14 -15 -16 -19 -19 -18 -17 -16 -15 -14 -17 -18 -19 -18 -18 -18 -18 -21 -18 -12 -10 -9
-1 -1 -1 -0 -2 0 -4 -6 -5 -2 -3 -3 -3 -4 -5 -7 -11 -11 -12 -13 -13 -13 -15 -17 -16 -15 -15 -15 -15 -15 -14 -13 -15 -16 -16 -17 -17 -17 -18 -17 -16 -14 -13 -11
-2 0 1 1 -0 -2 -3 -5 -3 -5 -3 -6 -6 -9 -11 -12 -13 -14 -13 -15 -15 -15 -13 -13 -13 -13 -12 -12 -12 -12 -12 -11 -11 -13 -14 -16 -15 -16 -16 -16 -15 -14 -15 -14
-3 -1 1 -1 1 2 -5 -6 -6 -9 -3 -8 -9 -11 -13 -13 -15 -14 -14 -14 -15 -15 -13 -13 -13 -13 -12 -13 -13 -12 -11 -11 -11 -14 -15 -15 -15 -17 -16 -15 -15 -14 -15 -14
-0 0 2 2 3 1 -6 -7 -7 -6 -6 -11 -13 -13 -13 -13 -14 -17 -20 -21 -21 -20 -17 -14 -14 -14 -15 -17 -14 -13 -13 -14 -15 -16 -15 -15 -16 -15 -14 -13 -13 -13 -13 -12
-1 1 2 2 3 2 -8 -9 -5 -8 -12 -14 -15 -15 -17 -19 -20 -19 -18 -18 -18 -17 -19 -17 -15 -16 -19 -19 -14 -14 -14 -15 -15 -15 -15 -15 -14 -13 -13 -12 -12 -12 -12 -11
-2 -2 -2 -1 -1 -8 -9 -10 -12 -13 -15 -16 -18 -19 -20 -18 -18 -17 -17 -16 -18 -23 -21 -19 -17 -17 -17 -16 -15 -14 -14 -14 -15 -14 -14 -13 -12 -12 -11 -11 -11 -11 -11 -11
-7 -8 -6 -6 -10 -13 -13 -14 -15 -17 -21 -20 -20 -18 -16 -16 -16 -17 -16 -17 -19 -20 -19 -18 -17 -16 -15 -14 -14 -14 -13 -12 -12 -12 -11 -11 -10 -10 -10 -10 -10 -10 -10 -10
-9 -8 -8 -14 -18 -17 -17 -18 -19 -19 -20 -20 -17 -16 -16 -17 -17 -16 -17 -19 -20 -19 -18 -16 -14 -14 -14 -13 -12 -12 -11 -11 -11 -10 -10 -10 -9 -9 -9 -8 -8 -8 -9 -9
-12 -11 -11 -11 -17 -18 -19 -19 -18 -19 -20 -17 -18 -17 -16 -15 -16 -19 -21 -19 -18 -17 -15 -14 -13 -12 -12 -11 -11 -11 -11 -10 -9 -9 -9 -9 -9 -9 -8 -8 -8 -8 -8 -9
Wind_Speed
2 5 5 7 5 4 3 3 3 1 2 2 6 7 7 11 15 13 13 19 19 16 14 10 7 8 7 5 4 3 2 2 2 2 2 3 5 7 9 10 11 13 15 16
5 2 3 3 2 3 2 3 2 1 2 2 2 7 6 5 8 18 18 23 21 19 15 11 10 9 8 6 5 3 2 3 3 4 4 6 7 8 9 11 13 14 12 12
6 2 3 2 1 4 2 3 3 3 1 2 2 6 2 2 2 8 17 24 22 19 17 14 11 10 8 6 4 3 3 2 3 4 5 5 6 8 9 10 9 9 10 11
5 2 3 3 2 2 3 2 3 3 3 3 2 4 3 3 2 6 21 23 20 18 15 14 12 8 6 6 6 4 2 2 3 4 6 8 9 10 11 10 8 7 7 8
4 4 3 3 3 0 3 3 3 2 3 3 1 3 6 3 6 7 14 19 17 19 16 15 11 8 7 7 5 3 2 1 4 6 8 10 11 12 11 9 8 7 7 9
3 1 1 3 2 3 5 5 6 4 3 1 4 5 4 5 7 5 13 21 20 20 16 13 10 7 7 6 4 2 2 3 6 8 10 13 13 12 11 10 11 11 11 13
3 1 1 2 4 2 2 5 2 3 3 5 2 2 8 5 4 7 17 23 21 18 15 12 9 8 6 4 3 3 4 7 9 12 15 15 15 14 14 14 14 15 16 17
6 4 6 3 2 5 5 5 5 6 3 4 3 6 5 3 5 7 21 25 19 15 12 10 8 5 3 3 3 6 10 13 14 16 16 15 15 15 15 15 16 17 18 19
6 2 1 2 1 2 4 3 3 6 3 3 3 6 3 4 7 14 25 21 17 14 11 8 5 1 1 4 7 10 12 13 16 18 17 16 16 16 16 17 18 20 21 22
6 4 1 1 1 2 1 3 3 3 3 4 5 5 5 4 4 5 10 16 15 13 10 6 4 3 5 6 9 11 11 13 14 13 14 16 18 20 22 24 26 28 29 29
4 4 2 2 5 7 2 1 3 4 4 4 1 5 4 7 9 10 15 15 16 13 10 5 3 2 7 8 5 8 9 10 12 15 18 21 24 26 29 30 32 33 34 35
3 5 4 4 1 2 4 6 6 4 5 2 3 6 4 3 7 16 10 14 12 12 9 5 2 2 4 1 3 4 5 7 9 14 17 20 24 26 30 35 37 37 39 37
6 0 3 5 4 1 4 5 4 5 3 6 5 5 2 8 12 12 22 17 13 10 7 6 3 1 1 3 5 8 11 15 19 26 31 33 33 34 36 37 37 37 36 28
7 4 5 7 4 5 5 5 5 6 4 3 6 3 4 5 7 13 15 14 11 7 5 1 2 5 8 12 15 19 22 26 31 36 41 39 37 37 37 33 28 30 29 29
4 6 5 3 2 2 4 4 7 7 7 7 6 8 9 8 7 12 11 8 5 4 2 1 5 9 13 17 21 24 29 32 31 29 26 26 28 30 31 32 31 30 34 35
1 3 3 3 2 5 5 6 9 8 7 8 4 4 2 11 12 10 7 4 5 5 5 7 11 17 21 23 24 24 23 20 21 23 27 29 31 33 35 35 33 33 36 38
7 6 3 4 2 1 3 13 16 6 4 6 8 6 10 6 10 8 5 4 4 3 7 15 21 23 21 20 21 23 24 24 26 28 30 34 38 41 42 40 36 34 34 32
7 6 3 2 3 3 1 2 3 6 4 3 7 7 9 12 8 4 4 4 3 12 19 22 21 20 19 21 24 26 27 29 31 33 36 38 41 42 43 43 41 38 38 37
0 5 3 4 4 5 2 4 6 5 2 1 7 8 12 7 2 2 4 7 15 20 22 22 23 25 27 28 31 33 34 34 36 38 41 42 42 43 44 42 42 43 43 40
3 2 3 3 5 7 2 3 5 5 2 9 12 9 8 5 1 3 6 14 18 19 21 23 26 28 30 31 32 33 36 37 39 42 44 43 43 45 43 42 43 44 43 40
3 1 10 6 4 5 4 8 6 5 4 14 14 11 9 4 4 8 13 18 20 22 23 24 27 30 32 32 31 34 36 39 43 43 44 44 47 46 44 44 42 43 42 41
7 8 3 3 4 7 13 5 7 7 18 15 11 8 3 1 6 11 18 22 24 26 26 25 29 32 33 31 32 36 40 42 44 44 44 46 45 44 42 43 44 44 41 39
3 5 6 5 2 4 13 9 18 16 18 11 7 4 1 6 11 16 23 26 26 26 27 28 30 34 35 36 36 38 40 41 42 43 43 42 42 39 42 43 42 42 40 40
1 2 4 4 1 6 17 17 16 14 12 9 4 1 5 10 14 22 26 26 27 28 29 30 33 36 39 39 36 36 37 39 39 41 41 41 41 41 37 38 38 37 37 37
1 4 5 3 5 9 11 14 15 11 6 3 2 3 7 15 23 24 27 28 29 30 32 32 33 35 37 38 39 39 38 38 40 40 39 38 36 35 36 36 35 34 35 34
4 5 4 4 14 6 15 16 12 6 4 2 3 9 17 20 24 25 28 28 30 32 32 35 36 35 38 40 40 40 37 36 35 38 37 35 35 36 36 38 40 36 34 35
Wind_Direction
94 92 186 205 199 178 139 175 144 295 199 169 234 265 261 239 208 198 193 182 177 178 176 182 194 184 177 170 169 165 162 110 67 30 351 310 295 288 297 303 303 305 309 308
42 170 192 156 195 163 126 131 117 23 179 164 237 267 291 181 198 200 190 179 178 174 178 179 182 181 177 178 175 168 129 94 53 29 15 2 348 332 319 313 308 308 309 310
135 150 145 173 91 125 47 154 171 164 315 244 308 303 317 7 127 202 194 181 180 182 174 169 173 180 185 186 177 168 147 117 48 21 6 356 343 324 308 299 301 306 311 314
101 157 154 152 142 126 158 174 109 78 67 223 33 277 273 221 135 172 173 178 179 175 173 178 184 190 204 206 189 182 153 74 18 356 348 340 329 313 305 308 315 316 313 318
216 144 152 167 154 90 166 118 103 101 91 47 307 100 261 150 221 202 189 181 176 180 180 182 193 205 200 186 182 172 166 334 337 337 332 322 310 300 296 297 300 303 307 309
109 104 98 150 96 63 128 81 43 52 76 20 229 141 266 186 206 184 193 183 176 175 182 188 194 192 179 176 183 201 262 318 322 322 316 306 298 295 293 294 295 300 306 311
26 2 336 140 96 57 97 80 359 354 7 219 338 90 247 250 238 204 185 186 180 180 183 188 189 181 182 189 224 270 305 314 314 313 306 301 301 301 300 300 302 304 307 311
146 297 178 176 178 173 179 157 156 209 201 249 329 230 255 338 332 255 188 172 171 178 182 183 180 194 218 247 294 310 311 313 309 305 303 305 303 301 301 302 305 308 310 312
151 171 92 87 94 113 184 181 168 103 11 45 246 294 296 69 42 109 141 159 169 172 167 174 190 207 307 308 318 318 312 315 313 309 303 302 300 299 298 300 304 307 309 309
200 102 232 136 113 38 138 159 70 357 148 245 279 271 242 170 135 137 150 163 164 164 166 163 175 231 262 287 298 298 306 313 317 314 317 321 318 313 306 303 305 307 307 305
137 100 268 88 200 179 133 206 65 122 150 176 247 264 222 206 182 182 186 177 164 158 155 148 126 284 297 299 281 275 290 304 319 321 320 316 316 313 308 303 303 306 306 306
179 122 164 187 237 229 193 187 159 138 215 177 155 269 1 68 173 190 160 153 146 133 126 122 107 337 319 243 223 278 313 320 305 300 300 299 296 296 295 297 297 298 300 297
182 164 68 353 356 350 212 194 132 106 65 198 150 257 48 90 87 131 140 133 129 128 124 121 141 229 308 298 282 283 295 299 304 309 309 303 296 296 300 297 294 291 288 285
134 151 167 189 190 135 191 194 166 139 134 191 220 184 204 170 134 124 122 120 118 109 83 116 289 307 306 298 292 292 295 300 300 304 304 304 307 308 305 296 302 302 289 279
125 176 167 218 239 194 199 171 178 192 201 189 215 208 199 186 163 143 122 112 103 71 34 352 309 305 302 302 299 298 299 304 304 307 314 320 321 321 322 316 304 298 294 294
62 171 92 309 212 224 242 238 233 216 233 255 248 243 111 142 144 128 105 60 8 335 315 304 313 318 316 314 312 310 311 313 315 313 314 317 319 320 319 312 313 304 298 297
143 136 114 241 54 215 317 217 217 216 183 182 206 204 152 135 142 137 151 171 175 260 304 315 319 317 316 315 315 312 310 307 313 314 316 317 318 317 317 315 312 305 307 304
142 127 115 170 23 294 313 62 218 134 49 81 95 114 130 139 135 145 165 160 298 317 318 317 314 310 310 315 318 318 315 311 308 309 311 312 313 313 313 312 310 307 304 301
41 134 139 150 202 318 221 192 149 165 185 221 125 120 123 118 116 248 185 316 312 312 311 311 315 314 312 311 312 309 310 307 306 303 306 309 311 311 311 308 305 304 303 300
63 29 132 148 179 219 210 167 133 109 248 179 144 136 134 128 122 246 304 310 312 313 312 310 310 310 308 310 309 307 306 305 305 306 305 306 306 308 306 307 304 301 300 296
121 144 209 204 228 284 196 156 139 125 214 151 143 144 153 167 218 308 327 325 322 318 313 311 309 309 310 310 310 307 306 303 304 305 303 302 305 305 303 304 300 300 299 298
162 162 185 174 208 258 149 111 169 133 133 142 143 145 144 297 316 321 325 321 320 318 316 314 312 312 313 312 311 307 305 307 307 306 302 302 302 303 301 300 297 298 297 293
184 169 173 186 219 100 161 134 135 144 145 149 149 157 280 306 315 317 318 317 317 318 317 317 316 316 314 314 313 308 308 309 306 306 304 303 304 301 298 296 294 296 295 293
45 53 103 138 79 127 133 135 142 142 141 146 147 242 283 295 306 311 316 317 318 319 319 320 319 316 313 315 312 308 309 311 308 304 302 304 301 301 298 295 292 290 288 285
132 113 127 80 85 117 155 156 148 141 137 155 204 290 303 313 315 317 316 317 317 316 317 317 315 313 310 312 313 314 314 311 308 307 309 308 304 301 299 296 294 292 289 285
185 157 166 198 176 154 176 160 156 158 170 165 318 318 323 322 318 317 314 316 316 316 315 313 314 316 315 315 316 316 316 316 314 311 309 305 304 301 300 299 298 297 291 290
Height
1515 1521 1528 1526 1525 1523 1523 1525 1526 1531 1530 1532 1534 1532 1527 1526 1528 1530 1532 1535 1537 1539 1541 1543 1544 1544 1545 1546 1546 1546 1546 1546 1546 1547 1547 1546 1546 1545 1544 1542 1540 1538 1535 1533
1519 1523 1521 1521 1522 1522 1522 1525 1532 1531 1530 1533 1531 1529 1525 1523 1523 1525 1528 1532 1535 1538 1540 1541 1542 1543 1545 1545 1545 1545 1546 1546 1546 1546 1545 1545 1544 1544 1542 1541 1539 1536 1533 1531
1519 1520 1519 1521 1524 1525 1530 1529 1531 1531 1531 1531 1531 1532 1525 1524 1523 1523 1526 1529 1533 1535 1537 1539 1541 1542 1543 1544 1544 1545 1545 1545 1545 1546 1545 1544 1543 1542 1541 1539 1537 1534 1532 1530
1517 1518 1519 1522 1525 1524 1527 1529 1529 1531 1535 1541 1532 1544 1530 1526 1525 1525 1526 1529 1532 1534 1536 1538 1540 1542 1542 1542 1543 1544 1545 1546 1545 1545 1544 1543 1542 1541 1539 1536 1535 1533 1531 1529
1519 1519 1520 1522 1523 1523 1527 1528 1531 1533 1540 1541 1538 1549 1529 1528 1528 1526 1526 1528 1530 1533 1535 1537 1539 1540 1541 1542 1543 1544 1544 1544 1544 1544 1543 1542 1541 1539 1537 1535 1533 1532 1531 1529
1518 1519 1520 1521 1523 1524 1527 1532 1538 1543 1548 1558 1535 1541 1528 1529 1521 1522 1524 1526 1528 1531 1533 1536 1538 1539 1540 1541 1542 1543 1543 1543 1543 1542 1541 1541 1539 1538 1536 1534 1532 1530 1529 1527
1521 1521 1521 1521 1524 1526 1528 1538 1558 1555 1565 1552 1535 1538 1522 1514 1513 1513 1516 1522 1526 1529 1532 1534 1536 1538 1539 1541 1541 1542 1542 1542 1541 1540 1539 1539 1538 1536 1534 1532 1530 1528 1525 1524
1532 1533 1522 1520 1521 1525 1530 1533 1552 1552 1555 1549 1536 1536 1516 1514 1512 1509 1513 1521 1526 1529 1531 1534 1536 1538 1539 1540 1540 1541 1540 1540 1539 1538 1537 1536 1535 1533 1532 1530 1528 1526 1524 1521
1519 1517 1520 1519 1520 1523 1526 1537 1530 1545 1553 1552 1537 1524 1514 1515 1515 1513 1515 1520 1525 1528 1531 1534 1535 1537 1538 1539 1539 1539 1539 1538 1537 1536 1534 1533 1531 1530 1528 1526 1524 1523 1521 1518
1503 1520 1520 1521 1521 1523 1523 1526 1539 1552 1553 1543 1537 1529 1520 1519 1521 1520 1520 1522 1525 1529 1532 1534 1535 1536 1536 1536 1536 1536 1536 1535 1533 1532 1531 1530 1529 1527 1525 1523 1521 1518 1516 1513
1500 1508 1526 1521 1523 1523 1528 1530 1533 1538 1541 1545 1556 1530 1515 1514 1516 1517 1519 1522 1525 1529 1531 1533 1534 1534 1534 1534 1533 1534 1533 1532 1531 1530 1528 1526 1525 1522 1520 1517 1515 1512 1509 1507
1498 1511 1534 1518 1517 1518 1518 1520 1524 1538 1534 1545 1552 1536 1513 1512 1512 1515 1520 1524 1527 1529 1531 1531 1532 1532 1531 1531 1531 1531 1530 1528 1526 1525 1523 1521 1519 1516 1514 1511 1508 1505 1501 1498
1497 1516 1538 1521 1522 1518 1517 1515 1520 1530 1535 1535 1545 1529 1517 1514 1513 1515 1519 1524 1527 1529 1529 1530 1531 1531 1530 1530 1529 1528 1526 1524 1522 1519 1517 1514 1512 1509 1506 1502 1498 1495 1492 1490
1491 1505 1505 1511 1503 1510 1514 1513 1516 1519 1545 1530 1526 1514 1519 1518 1518 1520 1522 1524 1527 1528 1529 1529 1528 1528 1527 1526 1525 1523 1522 1519 1516 1512 1508 1506 1503 1500 1497 1494 1491 1488 1485 1481
1493 1507 1505 1504 1503 1504 1504 1505 1513 1522 1511 1520 1507 1515 1512 1514 1517 1520 1523 1525 1526 1527 1528 1528 1527 1526 1525 1523 1521 1519 1516 1513 1510 1506 1503 1500 1496 1493 1489 1485 1482 1479 1476 1473
1493 1512 1518 1521 1506 1508 1508 1507 1507 1510 1507 1510 1508 1509 1508 1513 1516 1519 1521 1521 1522 1524 1524 1525 1524 1523 1521 1518 1516 1513 1510 1507 1505 1501 1498 1495 1491 1487 1483 1478 1474 1470 1467 1464
1494 1508 1517 1509 1507 1511 1519 1501 1496 1496 1499 1499 1506 1502 1509 1514 1516 1519 1520 1521 1523 1523 1523 1522 1520 1518 1516 1513 1511 1508 1505 1502 1499 1496 1492 1487 1483 1479 1474 1470 1466 1462 1458 1455
1492 1499 1507 1520 1514 1522 1487 1488 1489 1495 1501 1502 1503 1506 1509 1513 1516 1518 1519 1520 1521 1520 1519 1518 1516 1514 1512 1509 1506 1503 1499 1495 1492 1488 1484 1480 1476 1471 1466 1462 1458 1454 1450 1446
1483 1490 1507 1512 1516 1497 1490 1490 1493 1489 1505 1504 1505 1509 1512 1514 1516 1516 1518 1518 1517 1516 1514 1512 1510 1507 1504 1502 1499 1495 1491 1489 1485 1481 1476 1472 1468 1462 1457 1453 1448 1445 1440 1436
1484 1485 1490 1511 1510 1500 1485 1486 1487 1488 1501 1503 1504 1508 1511 1514 1518 1517 1516 1515 1514 1512 1510 1507 1504 1501 1499 1496 1494 1488 1484 1480 1475 1472 1467 1462 1458 1454 1448 1444 1438 1434 1430 1425
1490 1490 1484 1491 1490 1487 1482 1484 1486 1499 1498 1499 1503 1507 1510 1512 1513 1513 1512 1511 1509 1507 1504 1501 1497 1494 1492 1489 1486 1481 1477 1472 1468 1463 1458 1452 1447 1443 1439 1433 1428 1425 1419 1415
1477 1482 1488 1490 1490 1488 1479 1484 1489 1490 1495 1499 1503 1506 1508 1508 1508 1508 1508 1506 1504 1501 1498 1495 1491 1487 1484 1480 1478 1473 1468 1463 1458 1452 1447 1442 1436 1432 1427 1423 1418 1413 1410 1405
1470 1467 1475 1478 1476 1476 1480 1480 1484 1489 1493 1498 1501 1503 1504 1505 1505 1504 1502 1500 1497 1493 1490 1488 1485 1479 1475 1473 1470 1464 1458 1453 1447 1441 1436 1431 1425 1421 1417 1412 1407 1402 1399 1395
1465 1464 1471 1476 1481 1480 1481 1485 1487 1490 1493 1496 1499 1501 1502 1502 1502 1499 1496 1492 1490 1487 1484 1480 1476 1472 1467 1464 1461 1457 1450 1444 1438 1432 1427 1421 1415 1410 1406 1403 1398 1394 1390 1386
1464 1465 1470 1477 1480 1482 1484 1485 1488 1491 1494 1496 1497 1498 1498 1497 1494 1492 1488 1485 1483 1480 1476 1473 1469 1465 1460 1456 1450 1446 1440 1435 1428 1423 1417 1411 1407 1402 1396 1392 1388 1384 1380 1378
1463 1466 1470 1470 1471 1475 1480 1485 1488 1490 1492 1494 1494 1494 1494 1491 1488 1486 1482 1480 1477 1473 1470 1466 1461 1456 1450 1446 1440 1436 1432 1427 1421 1414 1408 1404 1399 1393 1387 1381 1374 1373 1370 1366